Location: Bagong Pook
(14.2541°N, 120.8791°E)
Time: 03:11:44
(UTC+00:00)

Cosmos 1452 Rocket - Pass Details

Date: 13 January 2026
Orbit: 762 x 771 km, 74.1° (Epoch: 16 February)

Event Time Altitude Azimuth Distance (km) Brightness Sun altitude
Rises 10:02:02 0° 200° (SSW) 3,214 7.4 -4.5°
Reaches altitude 10° 10:04:25 10° 203° (SSW) 2,290 6.7 -5.0°
Maximum altitude 10:09:33 63° 284° (WNW) 851 4.1 -6.2°
Drops below altitude 10° 10:14:42 10° 5° (N) 2,298 5.7 -7.3°
Sets 10:17:06 0° 8° (N) 3,226 6.4 -7.9°
